[[{"header":{"parameterUnit":"m.s-1","parameterCategory":1,"la1":30.2991,"la2":30.254,"lo1":-89.0895,"lo2":-89.0444,"dy":0.0017,"dx":0.0017,"nx":28,"ny":28,"refTime":"2024-12-14T03:00:00:Z","depth":0,"parameterNumber":2,"parameterNumberName":"U-component_of_WINDS"},"data":[0,0,0,0,0,0,0,0,0,0,0,0,0,0,0,0,0,0,0,0,0,0,0,0,0,0,0,0,0,0,0,0,0,0,0,0,0,0,0,0,0,0,0,0,0,0,0,0,0,0,0,0,0,0,0,0,0,0,-5.9561,-5.9561,0,-5.9545,-5.9545,-5.9544,-5.9398,-5.9394,-5.9391,-5.9387,-5.9373,-5.9376,-5.9379,0,0,0,0,0,0,0,0,0,0,0,0,0,-5.9468,-5.9471,-5.9561,-5.9561,-5.956,-5.9545,-5.9545,-5.9544,-5.9399,-5.9394,-5.939,-5.9386,-5.9372,-5.9375,-5.9379,0,0,0,0,0,0,0,0,0,0,0,0,0,-5.9486,-5.9472,-5.9561,-5.9486,-5.9479,-5.9545,-5.9545,-5.9544,-5.94,-5.9394,-5.9389,-5.9384,-5.9371,-5.9375,-5.938,-5.9517,0,0,-5.9393,-5.9395,0,0,0,0,0,0,0,0,-5.9485,-5.949,-5.9497,-5.9491,-5.9484,-5.9468,-5.9506,-5.9535,-5.9401,-5.943,-5.9387,-5.9381,-5.9409,-5.941,-5.9419,-5.9516,-5.9515,-5.9394,-5.9396,-5.9398,-5.94,0,0,0,0,0,0,0,-5.9484,-5.949,-5.9554,-5.9497,-5.9489,-5.9454,-5.9451,-5.9511,-5.945,-5.9427,-5.9416,-5.9416,-5.9404,-5.9415,-5.9418,-5.9515,-5.9394,-5.9398,-5.94,-5.9402,-5.9725,-5.9731,0,0,0,0,0,0,-5.9493,-5.949,-5.9555,-5.9554,-5.9471,-5.946,-5.9456,-5.9478,-5.9449,-5.944,-5.9421,-5.941,-5.941,-5.9413,-5.9417,-5.9575,-5.9398,-5.9403,-5.9405,-5.9719,-5.9726,-5.9733,0,0,0,0,0,0,-5.9492,-5.95,-5.9556,-5.9519,-5.9523,-5.9468,-5.9494,-5.9481,-5.9491,-5.9445,-5.9433,-5.9443,-5.9406,-5.941,-5.9493,-5.9572,-5.9405,-5.9409,-5.9712,-5.9722,-5.973,-5.9893,0,0,0,0,0,0,-5.949,-5.9501,-5.9551,-5.9521,-5.9526,-5.9632,-5.9499,-5.9485,-5.9499,-5.9484,-5.9462,-5.9453,-5.9402,-5.9487,-5.9498,-5.9575,-5.9412,-5.9705,-5.9716,-5.9727,-5.988,-5.9906,-5.9929,0,0,0,0,0,-5.9487,-5.9598,-5.9555,-5.9563,-5.9588,-5.9636,-5.9639,-5.9577,-5.9506,-5.9557,-5.9528,-5.9454,-5.9563,-5.9497,-5.9507,-5.9588,-5.97,-5.9713,-5.9726,-5.9869,-5.9901,-5.9928,0,0,0,0,0,0,-5.9639,-5.9593,-5.9544,-5.9648,-5.9648,-5.9612,-5.9673,-5.9613,-5.9632,-5.9617,-5.954,-5.9536,-5.9631,-5.9618,-5.9545,-5.972,-5.9619,-5.9635,-5.9724,-5.9754,-5.9778,-5.9778,-5.9416,0,0,0,0,0,-5.9685,-5.9727,-5.9685,-5.9781,-5.9784,-5.973,-5.9748,-5.9701,-5.9697,-5.9696,-5.9672,-5.9672,-5.9706,-5.973,-5.9758,-5.9879,-5.9872,-5.994,-5.9964,-5.9984,-5.9998,-6.0061,-6.0091,-5.9776,-5.9776,-5.9776,0,0,-5.9779,-5.9759,-5.9791,-5.9812,-5.9805,-5.9852,-5.973,-5.9784,-5.9818,-5.9704,-5.978,-5.9764,-5.9759,-5.9861,-5.9905,-5.9853,-6.0084,-6.0001,-6.0018,-6.002,-6.0078,-6.0108,-6.0134,-5.9785,-5.9784,-5.9782,0,0,-5.9974,-5.9964,-6.0043,-6.004,-6.0032,-5.9996,-6.0016,-5.999,-5.9974,-6.005,-5.9965,-6.0006,-6.0066,-6.0066,-6.0074,-6.0274,-6.0207,-6.0286,-6.0411,-6.0473,-6.0498,-6.052,-6.059,-6.0616,-6.03,-6.0301,-6.0301,0,-6.0092,-6.0158,-6.0092,-6.0152,-6.0164,-6.0064,-6.0144,-6.0145,-6.0147,-6.0158,-6.0101,-6.0175,-6.0164,-6.0265,-6.0314,-6.0325,-6.0345,-6.0286,-6.05,-6.0521,-6.054,-6.0606,-6.0633,-6.031,-6.0309,-6.0308,-6.0307,0,-6.0304,-6.0352,-6.0417,-6.0421,-6.0441,-6.0512,-6.0456,-6.0485,-6.0438,-6.0408,-6.0487,-6.0472,-6.0496,-6.0517,-6.0471,-6.0613,-6.0581,-6.0513,-6.0409,-6.0581,-6.0641,-6.0666,-6.0324,-6.032,-6.0317,-6.0315,0,0,-6.059,-6.0559,-6.0584,-6.0586,-6.0572,-6.0608,-6.0675,-6.0698,-6.0724,-6.0731,-6.0785,-6.084,-6.0777,-6.0787,-6.074,-6.0796,-6.0955,-6.0721,-6.072,-6.0764,-6.1109,-6.1158,-6.1188,-6.0912,-6.0916,-6.092,-6.1109,0,-6.0776,-6.0887,-6.083,-6.0949,-6.0992,-6.09,-6.0959,-6.0957,-6.0933,-6.0967,-6.094,-6.098,-6.0895,-6.09,-6.0952,-6.0925,-6.1023,-6.0911,-6.0961,-6.0963,-6.0962,-6.122,-6.1272,-6.145,-6.1132,-6.1136,-6.1139,0,-6.1007,-6.1024,-6.1146,-6.1126,-6.1142,-6.1195,-6.1213,-6.1247,-6.1245,-6.1223,-6.1236,-6.1177,-6.1242,-6.1143,-6.1232,-6.1157,-6.1175,-6.1166,-6.1171,-6.1171,-6.1059,-6.1225,-6.1506,-6.1532,-6.1176,-6.1173,-6.1171,0,-6.1201,-6.1255,-6.1335,-6.134,-6.1318,-6.1358,-6.1351,-6.1343,-6.1362,-6.1379,-6.139,-6.1415,-6.1428,-6.1449,-6.1399,-6.1331,-6.1495,-6.1391,-6.1478,-6.148,-6.1514,-6.1512,-6.1799,-6.1531,-6.1531,-6.153,-6.153,0,-6.1413,-6.1492,-6.1422,-6.1471,-6.1557,-6.1493,-6.158,-6.1563,-6.1558,-6.1603,-6.1527,-6.1571,-6.1504,-6.1542,-6.1504,-6.1584,-6.1591,-6.1575,-6.1563,-6.158,-6.1582,-6.1588,-6.1573,-6.1537,-6.1536,-6.1534,-6.1533,0,-6.1642,-6.1599,-6.168,-6.1655,-6.165,-6.1715,-6.1693,-6.1738,-6.171,-6.1768,-6.1778,-6.1734,-6.1775,-6.1729,-6.1766,-6.1741,-6.1848,-6.1819,-6.1848,-6.1839,-6.1928,-6.1919,-6.2227,-6.2264,-6.1975,-6.1978,-6.198,0,-6.1779,-6.1837,-6.1818,-6.1843,-6.1841,-6.1882,-6.19,-6.1842,-6.1865,-6.1868,-6.1913,-6.1948,-6.1972,-6.2043,-6.2014,-6.2043,-6.2013,-6.2119,-6.2017,-6.2032,-6.2012,-6.2008,-6.2013,-6.2139,-6.2142,-6.2145,-6.2148,0,-6.2025,-6.2002,-6.2031,-6.2055,-6.208,-6.2095,-6.2105,-6.213,-6.2069,-6.21,-6.214,-6.216,-6.2199,-6.2234,-6.2256,-6.2249,-6.2189,-6.2181,-6.2202,-6.2218,-6.2231,-6.2223,-6.1902,-6.2173,-6.217,-6.2169,-6.2167,-6.2166,-6.221,-6.2257,-6.2252,-6.2288,-6.229,-6.2302,-6.2343,-6.2321,-6.2355,-6.2381,-6.2346,-6.2397,-6.2396,-6.2418,-6.2419,-6.2459,-6.2414,-6.2445,-6.2452,-6.246,-6.2473,-6.2229,-6.2463,-6.2462,-6.2462,-6.2461,-6.2461,0,-6.245,-6.2443,-6.2477,-6.2494,-6.2523,-6.2466,-6.2475,-6.2503,-6.2549,-6.2553,-6.2579,-6.2627,-6.2662,-6.2639,-6.2668,-6.2705,-6.2678,-6.2715,-6.2709,-6.2709,-6.2512,-6.249,-6.2736,-6.2736,-6.2736,-6.2736,-6.2736,-6.2736,-6.2578,-6.2655,-6.2632,-6.2711,-6.2703,-6.2752,-6.2762,-6.2773,-6.2776,-6.2833,-6.2862,-6.2847,-6.284,-6.287,-6.29,-6.2892,-6.2905,-6.2952,-6.2934,-6.275,-6.2723,-6.2697,-6.2675,-6.2956,-6.2956,-6.3126,-6.3128,-6.3129]},{"header":{"parameterUnit":"m.s-1","parameterCategory":1,"la1":30.2991,"la2":30.254,"lo1":-89.0895,"lo2":-89.0444,"dy":0.0017,"dx":0.0017,"nx":28,"ny":28,"refTime":"2024-12-14T03:00:00:Z","depth":0,"parameterNumber":3,"parameterNumberName":"V-component_of_WINDS"},"data":[0,0,0,0,0,0,0,0,0,0,0,0,0,0,0,0,0,0,0,0,0,0,0,0,0,0,0,0,0,0,0,0,0,0,0,0,0,0,0,0,0,0,0,0,0,0,0,0,0,0,0,0,0,0,0,0,0,0,-0.189,-0.189,0,-0.1882,-0.1882,-0.1882,-0.1841,-0.184,-0.1839,-0.1838,-0.1832,-0.1833,-0.1834,0,0,0,0,0,0,0,0,0,0,0,0,0,-0.187,-0.187,-0.189,-0.189,-0.189,-0.1882,-0.1882,-0.1882,-0.1841,-0.184,-0.1839,-0.1838,-0.1832,-0.1833,-0.1834,0,0,0,0,0,0,0,0,0,0,0,0,0,-0.1872,-0.1871,-0.189,-0.1868,-0.1866,-0.1882,-0.1882,-0.1882,-0.1841,-0.184,-0.1838,-0.1837,-0.1832,-0.1833,-0.1834,-0.1871,0,0,-0.1838,-0.1838,0,0,0,0,0,0,0,0,-0.1872,-0.1873,-0.1872,-0.187,-0.1868,-0.1861,-0.1873,-0.1878,-0.1842,-0.1851,-0.1838,-0.1836,-0.1843,-0.1843,-0.1845,-0.187,-0.187,-0.1838,-0.1838,-0.1839,-0.1839,0,0,0,0,0,0,0,-0.1872,-0.1873,-0.1887,-0.1872,-0.1869,-0.1859,-0.1858,-0.1873,-0.1856,-0.185,-0.1847,-0.1846,-0.1842,-0.1844,-0.1845,-0.187,-0.1838,-0.1839,-0.1839,-0.184,-0.1922,-0.1923,0,0,0,0,0,0,-0.1874,-0.1873,-0.1887,-0.1887,-0.1866,-0.1861,-0.1859,-0.1865,-0.1855,-0.1852,-0.1848,-0.1845,-0.1843,-0.1843,-0.1844,-0.1885,-0.1839,-0.184,-0.1841,-0.192,-0.1922,-0.1924,0,0,0,0,0,0,-0.1874,-0.1876,-0.1887,-0.1879,-0.188,-0.1863,-0.1869,-0.1865,-0.1867,-0.1853,-0.185,-0.1853,-0.1842,-0.1843,-0.1864,-0.1884,-0.184,-0.1841,-0.1919,-0.1921,-0.1923,-0.1968,0,0,0,0,0,0,-0.1874,-0.1876,-0.189,-0.188,-0.188,-0.1907,-0.187,-0.1866,-0.1869,-0.1865,-0.1858,-0.1855,-0.1841,-0.1862,-0.1865,-0.1885,-0.1842,-0.1917,-0.192,-0.1922,-0.1964,-0.1971,-0.1977,0,0,0,0,0,-0.1873,-0.1904,-0.1891,-0.1893,-0.1897,-0.1908,-0.1909,-0.1891,-0.1871,-0.1885,-0.1875,-0.1856,-0.1881,-0.1865,-0.1867,-0.1888,-0.1915,-0.1919,-0.1922,-0.1961,-0.197,-0.1977,0,0,0,0,0,0,-0.192,-0.1903,-0.1888,-0.1917,-0.1914,-0.1901,-0.1918,-0.19,-0.1904,-0.19,-0.1878,-0.1877,-0.1901,-0.1896,-0.1878,-0.1922,-0.1895,-0.1899,-0.1924,-0.1932,-0.1938,-0.1939,-0.1843,0,0,0,0,0,-0.1933,-0.1943,-0.1928,-0.1954,-0.1954,-0.1936,-0.194,-0.1926,-0.1923,-0.1922,-0.1914,-0.1912,-0.192,-0.1925,-0.1932,-0.1963,-0.196,-0.1978,-0.1985,-0.199,-0.1994,-0.2008,-0.2016,-0.1935,-0.1935,-0.1935,0,0,-0.1961,-0.1953,-0.1961,-0.1963,-0.196,-0.197,-0.1936,-0.1949,-0.1957,-0.1924,-0.1943,-0.1937,-0.1933,-0.1959,-0.197,-0.1956,-0.2015,-0.1994,-0.1999,-0.2,-0.2013,-0.202,-0.2027,-0.1937,-0.1937,-0.1936,0,0,-0.2018,-0.2013,-0.2034,-0.203,-0.2024,-0.2012,-0.2017,-0.2006,-0.2,-0.2018,-0.1993,-0.2002,-0.2016,-0.2013,-0.2014,-0.2066,-0.2047,-0.2068,-0.2102,-0.2116,-0.2123,-0.2128,-0.2146,-0.2153,-0.2072,-0.2072,-0.2073,0,-0.2054,-0.2069,-0.2047,-0.2061,-0.2062,-0.2031,-0.2051,-0.2049,-0.2046,-0.2047,-0.2031,-0.2046,-0.2042,-0.2065,-0.2077,-0.2079,-0.2084,-0.207,-0.2123,-0.2129,-0.2134,-0.215,-0.2157,-0.2075,-0.2075,-0.2074,-0.2074,0,-0.2113,-0.2124,-0.2141,-0.2137,-0.2139,-0.2157,-0.2137,-0.2142,-0.2127,-0.2116,-0.2133,-0.2126,-0.2129,-0.2134,-0.212,-0.2155,-0.2146,-0.2127,-0.21,-0.2144,-0.2159,-0.2166,-0.2079,-0.2078,-0.2077,-0.2076,0,0,-0.2202,-0.2182,-0.2189,-0.2186,-0.2175,-0.2183,-0.2198,-0.2199,-0.2204,-0.2202,-0.2214,-0.2224,-0.2205,-0.2206,-0.2191,-0.2204,-0.2244,-0.2183,-0.2182,-0.2194,-0.228,-0.2295,-0.2302,-0.2231,-0.2232,-0.2233,-0.228,0,-0.2256,-0.2279,-0.2258,-0.2286,-0.2295,-0.2264,-0.2276,-0.2271,-0.226,-0.2266,-0.2254,-0.2262,-0.2237,-0.2237,-0.2248,-0.2237,-0.2261,-0.2233,-0.2241,-0.2242,-0.2243,-0.231,-0.2326,-0.2372,-0.2286,-0.2287,-0.2288,0,-0.2322,-0.2321,-0.2349,-0.2334,-0.2337,-0.2349,-0.2347,-0.2353,-0.2346,-0.2337,-0.2336,-0.2316,-0.2329,-0.2301,-0.2318,-0.23,-0.2302,-0.2296,-0.2298,-0.2298,-0.2268,-0.2313,-0.2386,-0.2393,-0.2297,-0.2296,-0.2296,0,-0.2383,-0.2389,-0.2405,-0.2404,-0.2387,-0.2396,-0.2389,-0.238,-0.2381,-0.238,-0.238,-0.2381,-0.2381,-0.2382,-0.2363,-0.2345,-0.2382,-0.2353,-0.2375,-0.2375,-0.2385,-0.2385,-0.2459,-0.2386,-0.2386,-0.2386,-0.2386,0,-0.2445,-0.2464,-0.2432,-0.2443,-0.2462,-0.2437,-0.2456,-0.2446,-0.2438,-0.2446,-0.2419,-0.2427,-0.2401,-0.2406,-0.2391,-0.2407,-0.2407,-0.24,-0.2396,-0.2403,-0.2404,-0.2404,-0.2401,-0.2387,-0.2387,-0.2387,-0.2386,0,-0.2517,-0.2497,-0.2513,-0.2495,-0.249,-0.2505,-0.2489,-0.2498,-0.2484,-0.2494,-0.2495,-0.2474,-0.2478,-0.2458,-0.246,-0.245,-0.2473,-0.2463,-0.2475,-0.2472,-0.2495,-0.2493,-0.2572,-0.2581,-0.2503,-0.2503,-0.2504,0,-0.2559,-0.2572,-0.2554,-0.2556,-0.255,-0.2555,-0.2556,-0.253,-0.2532,-0.2523,-0.2532,-0.2534,-0.2534,-0.2542,-0.2527,-0.2527,-0.2517,-0.2545,-0.2517,-0.2523,-0.2517,-0.2516,-0.2517,-0.2551,-0.2552,-0.2553,-0.2554,0,-0.2634,-0.2622,-0.2623,-0.262,-0.2621,-0.2618,-0.2613,-0.2617,-0.2589,-0.2592,-0.2595,-0.2595,-0.2594,-0.2596,-0.2592,-0.2585,-0.2565,-0.2562,-0.2567,-0.2574,-0.258,-0.2576,-0.2491,-0.2561,-0.256,-0.256,-0.2559,-0.2559,-0.2691,-0.27,-0.2688,-0.269,-0.2683,-0.2678,-0.2684,-0.267,-0.2672,-0.2669,-0.2654,-0.2659,-0.2649,-0.2642,-0.2636,-0.264,-0.2627,-0.2634,-0.2636,-0.2638,-0.2642,-0.2579,-0.2639,-0.2639,-0.2639,-0.2639,-0.2639,0,-0.2765,-0.2754,-0.2756,-0.2748,-0.2749,-0.2727,-0.272,-0.2722,-0.2727,-0.2718,-0.2718,-0.272,-0.2721,-0.2704,-0.2703,-0.2709,-0.2699,-0.2709,-0.2709,-0.2707,-0.2654,-0.265,-0.2717,-0.2717,-0.2717,-0.2717,-0.2717,-0.2717,-0.2803,-0.2816,-0.2803,-0.2812,-0.2802,-0.2806,-0.2803,-0.2798,-0.2791,-0.2794,-0.2794,-0.2782,-0.277,-0.2767,-0.2766,-0.2761,-0.2762,-0.2775,-0.2767,-0.2718,-0.2711,-0.2704,-0.2699,-0.2775,-0.2776,-0.2819,-0.2819,-0.282]}]]